Theta_e
285 279 274 275 278 282 280 277 274 278 283 281 285 283 285 286 286 285 286 286 287 287 290 291 292 293 293 293 293 294 295 298 299 299 299 302 306 312 319 331 332 333 332 330
278 275 279 281 280 281 278 275 274 278 282 281 284 282 284 285 284 284 285 285 285 286 287 289 290 290 290 291 292 293 293 295 298 299 299 301 303 310 315 327 331 331 331 331
275 277 282 280 277 277 276 274 274 275 280 283 283 280 281 283 283 284 284 285 285 285 285 286 287 288 288 288 289 291 292 294 295 297 299 299 300 302 306 307 312 329 330 330
277 280 279 277 275 276 274 277 277 277 274 268 281 275 281 280 280 281 282 281 283 284 285 286 286 287 287 287 288 289 291 292 294 295 296 296 295 295 298 303 308 312 329 328
275 275 274 275 276 279 276 279 277 277 275 273 276 269 274 280 277 278 280 281 281 283 284 285 285 286 287 287 287 288 289 290 291 293 294 295 295 296 298 300 303 307 317 323
276 280 277 275 278 279 280 278 280 281 275 264 271 269 269 274 275 277 279 280 281 281 283 285 285 286 286 287 287 287 288 288 289 291 292 293 293 295 295 296 298 301 306 316
275 274 277 278 274 278 277 272 258 260 260 263 273 267 269 276 277 278 277 278 279 281 281 282 283 284 285 285 286 287 287 287 288 289 290 292 292 294 294 295 295 297 302 307
267 268 274 277 274 273 274 271 260 254 260 264 272 263 271 279 280 278 278 279 279 279 281 281 282 283 283 284 285 286 286 286 287 288 288 290 292 292 294 295 295 296 298 302
264 269 276 276 276 275 272 267 274 260 255 259 268 273 277 279 278 276 276 277 278 279 280 280 281 282 282 283 284 284 285 286 286 287 288 288 290 291 291 293 294 295 296 298
271 264 274 276 277 277 274 275 264 260 253 251 263 266 266 275 274 275 275 275 277 279 280 280 280 281 282 283 283 284 284 285 286 287 287 288 288 290 290 292 292 293 294 295
273 266 270 275 271 269 271 270 269 264 263 255 255 263 269 273 274 273 274 276 277 278 279 279 280 281 281 282 282 283 283 284 285 286 287 287 287 288 289 289 291 292 293 293
275 264 260 269 272 273 274 270 269 258 259 263 263 262 278 275 276 276 276 277 278 279 279 279 280 280 281 281 281 282 283 283 284 285 286 286 287 287 287 287 288 290 291 292
272 263 255 263 268 273 270 272 273 266 262 257 255 261 276 276 276 278 278 279 279 280 278 279 280 280 280 280 281 281 282 283 284 285 285 285 285 286 286 285 286 288 290 291
277 266 262 260 264 268 266 269 269 262 254 263 263 267 272 274 275 277 278 279 279 278 279 279 279 280 280 281 280 281 282 283 284 284 283 283 284 285 285 285 285 286 289 290
271 260 265 267 270 269 269 269 270 266 267 260 267 267 271 274 275 276 278 279 278 278 278 278 279 280 280 280 280 282 282 283 283 283 282 283 284 284 284 283 284 285 287 288
274 259 263 260 268 269 268 270 270 270 270 269 269 268 275 275 276 275 277 277 276 277 278 278 280 280 280 280 281 282 282 282 283 282 282 282 282 283 282 282 282 283 285 287
267 262 258 254 264 259 258 263 269 269 270 268 264 271 274 273 275 275 275 276 276 277 278 279 279 280 280 280 281 281 281 282 281 281 281 281 281 281 280 281 281 281 283 285
266 264 263 258 255 251 267 272 272 270 272 272 272 273 274 274 275 276 277 276 277 275 277 279 280 280 280 281 281 281 281 280 280 279 279 280 279 277 279 279 279 280 282 283
273 269 262 256 250 262 268 271 270 268 268 273 271 273 273 274 273 273 277 278 277 272 276 280 281 281 280 280 281 280 279 278 277 276 276 276 276 278 278 276 277 279 281 283
268 270 269 252 253 251 265 271 273 272 263 272 272 273 272 273 269 273 275 278 278 277 276 278 280 280 280 279 277 278 277 276 274 275 274 275 277 277 274 275 277 279 281 282
257 264 265 265 262 260 270 273 274 261 267 273 274 274 273 272 274 276 277 277 278 276 276 277 277 276 277 276 277 274 273 271 273 273 273 275 273 272 274 275 277 279 280 281
261 258 258 255 253 257 273 272 269 274 275 276 275 275 274 275 276 276 276 277 278 275 275 277 277 276 277 276 277 272 269 270 272 272 272 270 270 271 273 274 276 277 277 280
262 268 263 265 264 273 274 276 277 276 275 275 275 276 278 276 275 276 277 277 277 277 277 276 275 275 272 272 274 273 269 270 270 268 267 268 270 272 273 273 273 274 277 278
271 273 269 271 273 274 277 277 277 277 277 279 279 278 278 277 277 278 278 278 278 278 278 274 275 273 271 269 270 266 267 269 268 265 266 268 269 270 270 272 273 274 276 276
273 272 271 272 275 276 277 278 279 279 280 279 279 278 278 277 278 278 278 277 276 276 275 274 273 272 271 270 268 265 267 267 265 265 266 267 268 268 269 270 273 275 275 277
276 275 272 271 277 277 277 280 280 278 278 279 278 279 278 278 277 276 275 275 273 271 270 270 270 267 266 265 265 264 263 263 262 263 265 265 266 266 268 270 270 274 276 278
Wind_Speed
11 15 11 9 7 2 8 8 5 3 6 6 12 13 12 10 13 14 13 14 14 15 14 15 17 17 18 18 21 21 22 21 16 15 15 13 11 11 12 7 11 11 9 10
8 15 11 8 15 10 10 5 6 6 5 2 13 13 11 10 11 12 12 12 13 14 15 16 17 18 19 19 19 20 21 20 16 13 11 11 12 7 10 12 9 11 13 12
12 6 7 7 13 9 4 7 3 5 7 4 13 8 10 8 10 10 10 8 10 13 14 16 17 17 18 20 21 20 20 19 18 18 11 12 10 9 10 13 12 11 13 12
9 8 7 7 6 6 3 5 4 6 3 2 2 1 4 6 9 10 9 8 7 9 10 11 14 15 16 16 16 18 20 19 17 19 16 17 12 13 11 12 11 15 13 13
2 5 8 8 6 5 6 15 6 4 2 4 7 6 2 2 6 6 6 7 7 7 8 9 10 11 10 12 14 14 17 18 19 18 17 14 15 12 12 12 17 15 14 8
5 2 5 4 5 5 12 6 6 5 4 4 4 5 4 1 2 1 2 5 7 10 8 7 6 7 8 9 11 14 16 16 18 18 18 18 19 18 16 16 13 13 12 13
6 4 3 6 7 8 14 8 5 8 7 6 2 4 6 5 3 2 6 7 8 8 7 8 8 8 9 11 10 12 14 16 17 17 18 17 17 18 16 17 15 18 13 12
5 6 7 8 3 3 5 4 6 4 2 6 11 4 4 6 5 6 4 5 5 6 6 7 8 7 6 10 9 10 12 14 16 17 17 16 15 11 12 13 13 12 13 12
5 1 4 4 3 3 7 6 2 5 1 4 4 1 4 4 2 3 6 5 5 5 5 6 7 6 6 7 7 7 9 11 13 14 14 16 15 15 15 18 14 12 16 13
0 3 2 4 2 5 5 1 5 5 3 5 6 5 6 5 4 4 4 6 6 5 6 7 6 6 5 6 6 7 7 9 10 12 12 13 15 15 15 16 18 16 16 18
2 5 5 1 4 1 5 2 4 5 4 5 3 7 6 8 6 2 4 5 6 7 7 7 7 6 6 6 7 9 7 9 9 11 12 14 15 15 14 14 16 18 16 16
1 5 2 1 4 1 3 3 4 7 6 2 3 9 4 7 6 5 3 7 7 8 6 6 6 7 6 7 7 9 8 9 8 11 9 14 15 15 15 15 16 18 18 15
2 2 4 8 6 5 2 2 3 4 4 7 4 9 4 7 10 18 22 19 16 12 6 6 7 6 5 6 7 7 7 10 8 10 11 14 13 15 16 16 16 17 19 16
6 1 7 8 6 3 3 4 2 6 4 5 13 21 19 21 22 19 20 19 14 6 6 6 7 6 6 7 6 7 9 7 10 10 12 12 14 15 15 16 16 16 17 16
6 4 2 6 10 4 9 15 14 11 15 8 20 18 22 20 21 20 20 14 4 7 7 7 6 7 7 7 6 7 7 9 9 11 12 12 13 14 14 16 17 16 17 16
3 4 2 6 11 8 12 19 14 16 17 19 22 25 21 17 12 11 14 6 7 7 7 7 6 8 8 8 7 8 9 9 8 11 12 13 14 14 15 17 17 17 16 16
6 3 3 7 3 5 10 11 10 5 7 8 8 17 14 14 15 13 10 7 6 5 5 7 8 10 9 9 7 8 9 7 9 10 12 13 13 15 16 16 17 17 17 17
6 5 3 5 5 1 8 5 7 11 11 15 14 15 14 14 15 12 8 6 5 6 6 8 10 10 9 8 7 6 6 7 8 10 12 12 14 15 15 15 16 16 15 16
6 5 3 3 5 8 8 11 7 6 8 14 11 15 12 11 5 5 7 5 7 7 7 9 10 9 8 8 8 5 7 5 5 8 9 13 13 16 17 17 17 17 16 14
4 3 6 3 3 8 7 3 3 4 9 11 10 11 9 5 6 10 8 8 8 8 8 9 10 7 7 10 3 5 7 6 7 6 11 12 13 15 16 15 17 16 15 14
3 2 17 12 9 10 13 9 4 5 13 5 7 10 7 7 10 11 6 9 8 8 9 7 7 7 9 4 3 4 5 5 5 9 11 11 13 13 13 14 14 15 16 15
10 10 6 2 1 14 13 5 10 13 3 9 7 8 10 11 12 10 9 10 9 9 8 8 7 8 7 3 2 4 4 3 7 9 9 12 12 10 10 13 14 14 14 14
3 11 9 14 14 7 8 13 12 6 7 8 6 10 15 12 10 9 11 10 7 8 7 5 6 6 4 4 2 4 4 7 8 8 10 11 12 10 10 12 13 13 12 11
7 6 7 13 12 20 21 14 11 10 14 17 15 10 10 15 13 12 9 8 4 4 4 3 5 5 5 3 3 2 6 7 8 9 10 10 11 11 10 8 9 9 9 11
8 7 11 20 20 21 23 23 25 21 19 17 16 11 14 10 11 9 6 4 2 3 4 6 6 7 5 6 5 4 7 8 8 9 9 10 9 10 11 8 9 10 10 11
8 19 12 18 23 19 20 17 11 12 11 11 10 13 9 9 8 4 3 1 2 4 6 6 6 6 7 7 7 5 5 5 8 10 8 8 8 8 8 10 11 14 21 23
Wind_Direction
15 63 37 26 358 350 73 64 4 339 12 12 99 92 76 64 62 51 43 36 33 29 18 18 15 13 14 11 8 8 7 7 6 2 355 346 342 319 325 252 228 213 213 206
29 40 345 35 18 75 73 73 352 296 314 5 116 90 85 68 64 55 45 38 30 22 18 17 15 15 13 9 7 6 8 5 7 2 354 339 323 320 307 295 243 237 220 210
75 339 12 46 32 25 65 84 349 274 325 51 121 116 95 82 75 63 54 46 37 28 17 13 13 14 12 10 6 2 4 3 3 358 350 346 339 344 348 328 335 266 234 220
63 355 22 41 44 8 316 59 318 280 52 170 64 192 131 99 68 49 37 27 20 25 22 16 13 12 10 8 5 2 1 358 358 358 358 356 350 340 328 321 307 326 243 234
269 25 14 31 354 353 268 309 268 208 160 63 331 72 237 99 57 24 24 24 18 11 14 12 9 7 5 3 3 360 0 359 357 356 359 355 349 339 331 327 325 320 319 260
77 54 54 310 305 345 319 347 39 56 86 39 265 109 261 196 144 354 19 16 13 6 2 360 357 3 1 359 0 358 358 357 355 355 353 354 351 339 338 338 334 329 321 311
357 18 6 11 5 349 1 34 359 4 10 216 71 41 246 168 134 35 30 15 10 2 352 353 349 358 2 360 355 356 354 351 351 351 350 347 347 344 338 336 332 328 321 324
41 350 13 340 48 290 328 82 131 202 307 292 343 262 263 173 181 68 62 43 10 347 350 344 338 343 352 355 344 350 348 344 347 346 343 342 342 341 336 332 326 321 323 317
28 214 330 47 339 44 316 38 142 99 129 33 259 305 325 178 83 18 32 18 340 334 343 336 329 333 342 342 335 331 332 335 340 339 339 338 337 337 336 333 327 327 324 321
305 346 318 303 27 6 81 266 45 7 46 306 291 287 243 190 259 353 333 309 306 322 322 315 317 320 322 327 319 323 319 321 323 330 335 331 331 332 330 331 332 326 324 322
76 98 298 8 37 188 356 27 42 116 133 175 291 268 218 195 212 207 317 317 307 301 293 305 305 308 318 335 334 325 317 327 322 328 327 329 329 329 327 328 327 328 320 322
141 143 270 252 287 254 91 171 109 115 285 246 181 272 218 234 191 174 267 291 298 285 305 322 310 306 325 326 329 324 311 323 312 322 317 323 322 325 326 325 325 327 322 317
238 325 0 344 353 353 95 204 132 104 76 213 132 258 279 328 316 313 314 315 319 313 316 321 315 314 306 312 318 305 304 312 313 316 319 320 320 322 321 322 321 320 322 315
94 173 171 195 204 145 276 272 234 135 145 233 228 265 285 291 293 300 296 293 298 270 289 286 302 300 301 307 304 304 309 304 316 314 320 315 316 316 316 318 317 317 317 316
122 196 210 265 271 245 260 263 257 229 241 235 272 276 277 282 287 288 289 294 249 273 286 287 288 288 289 293 297 307 302 313 311 313 315 313 313 310 315 315 315 313 314 315
166 265 83 284 265 272 266 262 255 250 256 257 264 273 270 273 276 282 282 246 252 279 293 315 290 285 285 282 291 305 306 305 309 309 308 314 316 314 315 314 312 312 312 309
141 137 57 268 345 360 298 239 226 188 207 213 244 267 294 297 300 291 274 250 274 284 287 284 280 282 271 276 275 289 297 300 307 305 310 315 314 316 314 311 312 311 313 311
146 132 140 260 30 275 244 229 202 207 228 247 261 272 275 281 285 282 261 241 272 264 272 292 298 276 269 267 272 276 285 298 299 304 311 317 320 314 314 314 310 311 313 313
166 156 273 215 199 302 287 274 173 188 254 251 245 265 266 267 296 287 262 224 243 232 254 278 274 261 266 276 277 290 295 290 294 306 315 318 317 316 316 311 312 311 313 305
60 164 192 76 203 231 248 218 138 119 274 234 217 239 242 269 282 287 246 254 283 266 258 272 267 267 268 269 265 284 295 311 308 318 314 310 315 312 306 304 309 308 307 305
73 182 221 231 249 278 247 241 123 100 266 215 207 232 229 230 252 265 247 261 262 257 269 271 267 260 261 267 254 272 294 300 304 311 305 305 310 303 299 303 309 309 311 307
165 167 197 99 180 278 217 120 188 226 246 235 239 248 252 261 266 264 254 259 262 268 280 279 280 275 278 246 255 282 286 283 311 307 312 305 304 302 302 303 306 310 307 310
262 198 183 188 207 232 202 217 229 236 235 244 219 247 274 270 262 257 270 271 249 260 268 269 273 299 333 338 19 322 303 326 316 317 306 304 305 305 309 311 310 314 318 313
249 190 235 256 211 252 259 253 249 238 241 259 260 245 252 264 267 276 268 275 277 306 333 6 2 339 316 351 1 306 323 329 321 310 308 307 311 316 313 307 305 301 311 315
204 162 221 253 263 264 270 264 265 273 266 267 277 255 248 239 259 256 257 273 346 14 15 348 330 323 327 336 335 333 338 332 321 313 309 309 311 312 312 305 302 310 299 300
197 239 233 252 256 249 260 261 252 249 252 247 238 263 251 225 239 195 233 102 17 352 340 328 331 331 318 321 318 318 326 332 325 317 314 311 308 310 307 310 311 303 304 310